Weather History for Kalispell, MT

Change the Weather History Date:

Sunday, November 6, 2011

  Actual Average Record
Temperature  
Mean Temperature 26 °F 35 °F  
Max Temperature 33 °F 44 °F 62 °F (1931)
Min Temperature 19 °F 26 °F 6 °F (2003)
Degree Days  
Heating Degree Days 39 30  
Month to date heating degree days 199 175  
Since 1 July heating degree days 1233 1383  
Cooling Degree Days 0 0  
Month to date cooling degree days 0 0  
Year to date cooling degree days 97 147  
Moisture  
Dew Point 22 °F    
Average Humidity 81    
Maximum Humidity 92    
Minimum Humidity 69    
Precipitation  
Precipitation T in 0.05 in 0.43 in (2006)
Month to date precipitation 0.03 0.27  
Year to date precipitation 15.04 14.27  
Snow  
Snow T in - - ()
Month to date snowfall T  
Year to date snowfall 27.0  
Since 1 July snowfall T  
Snow Depth 0.00 in    
Sea Level Pressure  
Sea Level Pressure 29.99 in    
Wind  
Wind Speed 0 mph (NW)    
Max Wind Speed 7 mph    
Max Gust Speed 26 mph    
Visibility 10 miles    
Events Snow    
T = Trace of Precipitation, MM = Missing Value Source: NWS Daily Summary

Daily Weather History Graph

Daily Weather History Graph

Search for Another Location

Airport:

Trip Planner

Search our weather history database for the weather conditions in past years. The results will help you decide how hot, cold, wet, or windy it might be!

Date:

Astronomy

Nov. 06, 2011 Rise Set
Actual Time 7:30 AM MST 5:10 PM MST
Civil Twilight 6:57 AM MST 5:43 PM MST
Nautical Twilight 6:19 AM MST 6:20 PM MST
Astronomical Twilight 5:43 AM MST 6:57 PM MST
Moon 3:09 PM MST (11/6) 3:25 AM MST (11/6)
Length of Visible Light 10h 46m
Length of Day
9h 40m
Waxing Gibbous, 86% of the Moon is Illuminated
Nov 6
Waxing Gibbous
Nov 10
Full
Nov 18
Last Quarter
Nov 24
New
Dec 2
First Quarter

Hourly Weather History & Observations

Time (MST) Temp. Windchill Dew Point Humidity Pressure Visibility Wind Dir Wind Speed Gust Speed Precip Events Conditions
12:55 AM 21.0 °F - 18.0 °F 88% 29.89 in 10.0 mi Calm Calm - N/A   Clear
1:55 AM 19.9 °F - 17.1 °F 89% 29.90 in 10.0 mi Calm Calm - N/A   Clear
1:55 AM 21.0 °F - 19.0 °F 92% 29.90 in 10.0 mi Calm Calm - N/A   Overcast
2:55 AM 23.0 °F - 19.9 °F 88% 29.89 in 10.0 mi Calm Calm - N/A   Overcast
3:55 AM 24.1 °F - 19.9 °F 84% 29.90 in 10.0 mi Calm Calm - N/A   Overcast
4:55 AM 24.8 °F - 19.4 °F 80% 29.83 in 10.0 mi Calm Calm - N/A   Overcast
5:55 AM 23.0 °F 18.4 °F 19.9 °F 88% 29.92 in 10.0 mi SW 3.5 mph - N/A   Overcast
6:55 AM 24.1 °F - 19.9 °F 84% 29.93 in 10.0 mi Calm Calm - N/A   Overcast
7:55 AM 24.1 °F - 21.0 °F 88% 29.95 in 10.0 mi Calm Calm - N/A   Overcast
8:55 AM 25.0 °F - 21.9 °F 88% 29.97 in 9.0 mi Calm Calm - 0.00 in Snow Light Snow
9:55 AM 27.0 °F - 23.0 °F 85% 29.99 in 9.0 mi Calm Calm - 0.00 in Snow Light Snow
10:55 AM 28.0 °F - 23.0 °F 81% 30.00 in 10.0 mi Calm Calm - 0.00 in   Overcast
11:55 AM 30.0 °F - 23.0 °F 75% 30.01 in 10.0 mi Calm Calm - N/A   Overcast
12:55 PM 30.9 °F 27.5 °F 24.1 °F 76% 30.01 in 10.0 mi NE 3.5 mph - N/A   Overcast
1:55 PM 32.0 °F - 24.1 °F 73% 30.01 in 10.0 mi Calm Calm - N/A   Overcast
2:55 PM 33.1 °F - 24.1 °F 70% 30.02 in 10.0 mi Calm Calm - N/A   Overcast
3:55 PM 33.1 °F - 24.1 °F 70% 30.03 in 10.0 mi Calm Calm - N/A   Overcast
4:55 PM 32.0 °F - 25.0 °F 75% 30.05 in 10.0 mi Calm Calm - N/A   Overcast
5:55 PM 30.9 °F - 24.1 °F 76% 30.07 in 10.0 mi Calm Calm - N/A   Overcast
6:55 PM 28.9 °F - 25.0 °F 85% 30.09 in 10.0 mi Calm Calm - N/A   Overcast
7:55 PM 30.0 °F - 25.0 °F 82% 30.10 in 10.0 mi Calm Calm - N/A   Overcast
8:55 PM 28.9 °F - 25.0 °F 85% 30.12 in 10.0 mi Calm Calm - N/A   Overcast
9:55 PM 28.9 °F - 25.0 °F 85% 30.13 in 10.0 mi Calm Calm - N/A   Overcast
10:55 PM 28.9 °F - 25.0 °F 85% 30.14 in 10.0 mi Calm Calm - N/A   Overcast